Location: Newark
(44.2003°N, 3.2583°E)
Time: 03:09:01
(UTC+00:00)

STARLINK-1752 - Pass Details

Date: 26 September 2020
Orbit: 549 x 551 km, 53.0° (Epoch: 27 October)

Event Time Altitude Azimuth Distance (km) Brightness Sun altitude
Exits shadow 02:45:41 23° 24° (NNE) 1,195 5.8 -30.5°
Drops below altitude 10° 02:48:21 10° 62° (ENE) 1,826 7.2 -30.1°
Sets 02:50:54 0° 76° (ENE) 2,719 8.2 -29.7°
